This demonstration page uses our WeatherBlox Daily Observations layout. Learn more.

39.92423, -83.80882

Hourly Observations for June 22, 2019

Temp ( °F °C ) Dew Point ( °F °C ) Humidity (%) Winds ( mph kmh ) Pressure ( in mb ) Visibility ( mi km ) Precip ( " mm )
12:56 am 00:56 Cloudy 67 19.4 61 16.1 81 81 ESE 7 11 30 1016 10 16.0934 0 0.0254
1:56 am 01:56 Partly Cloudy 67 19.4 59 15 76 76 ESE 8 13 29.99 1016 10 16.0934 0 0.0254
2:56 am 02:56 Partly Cloudy 66 18.9 59 15 78 78 ESE 8 13 29.99 1016 10 16.0934 0 0
3:56 am 03:56 Partly Cloudy 66 18.9 58 14.4 75 75 ESE 8 13 30 1016 10 16.0934 0 0
4:56 am 04:56 Cloudy 65 18.3 59 15 81 81 E 7 11 30.01 1016 10 16.0934 0 0.0254
6:56 am 06:56 Mostly Cloudy with Light Rain 63 17.2 61 16.1 93 93 E 6 9 30.06 1018 10 16.0934 0.01 0.254
7:56 am 07:56 Cloudy with Light Rain 64 17.8 62 16.7 93 93 ESE 6 9 30.06 1018 10 16.0934 0 0.0254
8:56 am 08:56 Cloudy 65 18.3 60 15.6 84 84 SE 9 15 30.07 1018 10 16.0934 0 0.0254
9:56 am 09:56 Cloudy 66 18.9 60 15.6 81 81 SE 6 9 30.09 1019 10 16.0934 0 0
10:56 am 10:56 Cloudy 67 19.4 61 16.1 81 81 E 9 15 30.09 1019 10 16.0934 0 0
11:56 am 11:56 Cloudy 69 20.6 61 16.1 76 76 E 12 19 30.09 1019 10 16.0934 0 0
12:56 pm 12:56 Cloudy 72 22.2 57 13.9 59 59 ESE 13 20 30.09 1019 10 16.0934 0 0
1:56 pm 13:56 Cloudy 75 23.9 58 14.4 55 55 ESE 13 20 30.08 1019 10 16.0934 0 0
2:56 pm 14:56 Cloudy 74 23.3 57 13.9 56 56 E 9 15 30.09 1019 10 16.0934 0 0
3:56 pm 15:56 Cloudy 76 24.4 59 15 56 56 VRB 7 11 30.09 1019 10 16.0934 0 0
4:56 pm 16:56 Sunny 76 24.4 59 15 56 56 E 8 13 30.08 1019 10 16.0934 0 0
5:56 pm 17:56 Cloudy 76 24.4 58 14.4 54 54 E 6 9 30.08 1019 10 16.0934 0 0
6:56 pm 18:56 Mostly Sunny 76 24.4 58 14.4 54 54 ENE 7 11 30.07 1018 10 16.0934 0 0
7:56 pm 19:56 Partly Cloudy 74 23.3 60 15.6 62 62 E 7 11 30.06 1018 10 16.0934 0 0
8:56 pm 20:56 Sunny 70 21.1 61 16.1 73 73 E 7 11 30.03 1017 10 16.0934 0 0
9:56 pm 21:56 Clear 67 19.4 59 15 76 76 E 10 17 30.02 1017 10 16.0934 0 0
10:56 pm 22:56 Clear 65 18.3 58 14.4 78 78 Calm 30.07 1018 10 16.0934 0 0
11:56 pm 23:56 Clear 61 16.1 57 13.9 87 87 E 3 6 30.09 1019 10 16.0934 0 0

Powered by AerisWeather